星链-2621 (STARLINK-2621 )

导读 | 豆包AI

STARLINK-2621是美国SpaceX公司星链(Starlink)低轨卫星互联网星座中的一颗卫星,于2021年5月4日发射升空,星链项目旨在为全球提供覆盖广泛的高速卫星互联网服务。 星链整体计划部署规模庞大,截至2025年底在轨工作卫星超9000颗,截至2026年已在全球积累超九百万活跃订阅用户,手机直连服务也已为数千万用户提供通信支持,服务覆盖六大洲。

基本信息
目录编号:
48370
目录名称:
STARLINK-2621
国际标识:
2021-038T
轨道中心:
EARTH
卫星名称:
星链-2621
卫星全名:
星链-2621 (STARLINK-2621 )
卫星状态:
在轨 (已飞行1775 天)
发射日期:
2021-05-04 UTC
国别 :
美国 (US)
星等 :
--
轨道信息
数据来源 国际轨道数据
星历时间: 2026-03-14T08:26:03+0800
16小时前
查看轨道信息
半长轴: 6853.34km
偏心率: 0.000119
轨道倾角: 53.160°
近地点辐角 66.502°
升交点赤经 327.682°
平近点角 293.611°
近地点: 474.387km
远地点: 476.019km
周期: 94.105分钟
每日圈数: 15.302043
详细信息
固有亮度:
5
最大亮度:
2.5
卫星平台:
Starlink V1.0
覆盖范围:
全球
运营商:
太空探索技术公司
运营商所在国:
美国
制造商(研发单位):
太空探索技术公司
制造商所在国:
美国
使用方式:
暂无
卫星简介
星链(Starlink)计划是由太空探索技术公司(SpaceX)提出的一个巨型低轨卫星互联网星座项目,计划在2019年至2024年间在太空搭建由约1.2万颗卫星组成的“星链”网络,其中1584颗将部署在地球上空550千米处的近地轨道,并从2020年开始工作。该卫星仍在工作。
2D轨道图
3D轨道图
轨道高度分析图
轨道倾角分析图
轨道综合分析图
查看轨道综合分析图